Tracking 23762 objects as of 21-Oct-2021
HD Live streaming from Space Station
objects crossing your sky now

OPTUS B1 R/B(STAR 63F)

Track OPTUS B1 R/B(STAR 63F) now!


NORAD ID: 22089
Int'l Code: 1992-054C
Perigee: 369.3 km
Apogee: 36,428.8 km
Inclination: 23.0 °
Period: 646.6 minutes
Semi major axis: 24770 km
RCS: 6.8742 m2 (large)
Launch date: August 13, 1992
Source: Australia (AUS)
Launch site: Xichang Space Center, China (XSC)

Note: This is a ROCKET BODY
aabbcc
Your satellite tracking list
Your tracking list is empty




NASA's NSSDC Master Catalog

Two Line Element Set (TLE):
1 22089U 92054C   21293.42504807  .00000040  00000-0  18761-3 0  9998
2 22089  23.0454 105.1286 7278861 341.2828   1.9377  2.22696505234903
Source of the keplerian elements: AFSPC